Date String (YYYY-MM-DD hh:mm:ss) UTC,Instrument flags,absolute air pressure of the measurement (hPa),sample flow rate (lpm),inlet stack bypass flow (lpm),air temperature of the measurement (°C),ambient temperature measured by the external sensor (°C),aerosol sample conditioner tube jacket temperature (°C),OPC LED temperature (°C),internal box temperature (°C),relative humidity of the measurement (%),span deviation,mass concentration of particles derived from Lorenz-Mie calculation of OPC scattering (μg/m³),mass concentration of particles derived from Lorenz-Mie calculation of OPC scattering (μg/m³),mass concentration of particles derived from Lorenz-Mie calculation of OPC scattering (μg/m³)
DateTimeUTC,F1_M11,P_M11,Q1_M11,Q2_M11,T1_M11,T2_M11,T3_M11,T4_M11,T5_M11,U1_M11,ZSPAN_M11,X0_M11,X2_M11,X1_M11
2023-10-03 01:00:00,SystemResetWarning,0824.0,5.01,000.00,028.2,024.6,000.0,036.5,029.8,21.6,0000.0,0001.88,0001.03,0000.70
2023-10-03 01:01:00,SystemResetWarning,0824.0,5.01,000.00,028.1,024.7,000.0,036.5,029.7,22.3,0000.0,0002.29,0001.04,0000.69
2023-10-03 01:02:00,SystemResetWarning,0824.0,4.99,000.00,028.0,025.0,000.0,036.5,029.6,21.8,0000.0,0002.37,0000.99,0000.67
2023-10-03 01:03:00,SystemResetWarning,0824.0,5.00,000.00,028.0,025.3,000.0,036.5,029.6,21.6,0000.0,0003.30,0000.96,0000.65
2023-10-03 01:04:00,SystemResetWarning,0824.0,5.00,000.00,028.0,025.7,000.0,036.5,029.7,21.2,0000.0,0003.32,0000.94,0000.62
2023-10-03 01:05:00,SystemResetWarning,0824.1,5.00,000.00,028.0,026.0,000.0,036.5,029.8,20.7,0000.0,0003.31,0000.90,0000.60
2023-10-03 01:06:00,SystemResetWarning,0824.0,5.00,000.00,028.1,026.3,000.0,036.5,029.8,20.3,0000.0,0003.22,0000.85,0000.58
2023-10-03 01:07:00,SystemResetWarning,0824.0,5.00,000.00,028.1,026.6,000.0,036.5,029.9,20.9,0000.0,0003.13,0000.81,0000.57
2023-10-03 01:08:00,SystemResetWarning,0824.1,4.99,000.00,028.1,026.8,000.0,036.6,029.9,20.9,0000.0,0003.14,0000.81,0000.57
2023-10-03 01:09:00,SystemResetWarning,0824.0,5.01,000.00,028.2,026.9,000.0,036.6,030.0,20.5,0000.0,0003.15,0000.81,0000.56
2023-10-03 01:10:00,SystemResetWarning,0824.2,5.01,000.00,028.2,027.1,000.0,036.6,030.0,20.2,0000.0,0002.97,0000.81,0000.56
2023-10-03 01:11:00,SystemResetWarning,0824.1,5.00,000.00,028.2,027.2,000.0,036.6,030.1,20.5,0000.0,0002.95,0000.81,0000.57
2023-10-03 01:12:00,SystemResetWarning,0824.3,4.99,000.00,028.3,027.0,000.0,036.6,030.1,20.5,0000.0,0002.65,0000.79,0000.57
2023-10-03 01:13:00,SystemResetWarning,0824.3,4.99,000.00,028.3,025.4,000.0,036.6,030.0,20.6,0000.0,0002.45,0000.77,0000.57
2023-10-03 01:14:00,SystemResetWarning,0824.3,5.01,000.00,028.2,024.6,000.0,036.5,029.8,20.5,0000.0,0001.53,0000.75,0000.57
2023-10-03 01:15:00,SystemResetWarning,0824.2,5.00,000.00,028.1,024.7,000.0,036.5,029.7,20.2,0000.0,0001.18,0000.73,0000.58
2023-10-03 01:16:00,SystemResetWarning,0824.2,5.00,000.00,028.0,025.0,000.0,036.5,029.6,20.4,0000.0,0001.09,0000.73,0000.57
2023-10-03 01:17:00,SystemResetWarning,0824.2,5.00,000.00,028.0,025.4,000.0,036.5,029.7,20.4,0000.0,0001.12,0000.73,0000.57
2023-10-03 01:18:00,SystemResetWarning,0824.1,5.00,000.00,028.0,025.7,000.0,036.5,029.7,20.4,0000.0,0001.14,0000.73,0000.56
2023-10-03 01:19:00,SystemResetWarning,0824.1,5.00,000.00,028.0,026.1,000.0,036.5,029.8,19.9,0000.0,0001.08,0000.70,0000.55
2023-10-03 01:20:00,SystemResetWarning,0824.1,5.00,000.00,028.1,026.3,000.0,036.5,029.8,20.1,0000.0,0001.01,0000.66,0000.54
2023-10-03 01:21:00,SystemResetWarning,0824.1,5.00,000.00,028.1,026.6,000.0,036.5,029.9,20.1,0000.0,0000.98,0000.64,0000.52
2023-10-03 01:22:00,SystemResetWarning,0824.2,5.00,000.00,028.1,026.7,000.0,036.5,029.9,19.8,0000.0,0000.97,0000.63,0000.51
2023-10-03 01:23:00,SystemResetWarning,0824.3,5.00,000.00,028.2,026.9,000.0,036.5,030.0,19.7,0000.0,0000.99,0000.63,0000.49
2023-10-03 01:24:00,SystemResetWarning,0824.4,4.99,000.00,028.2,027.0,000.0,036.6,030.0,19.6,0000.0,0000.95,0000.62,0000.48
2023-10-03 01:25:00,SystemResetWarning,0824.4,4.99,000.00,028.2,027.1,000.0,036.6,030.1,19.7,0000.0,0000.85,0000.60,0000.47
2023-10-03 01:26:00,SystemResetWarning,0824.4,5.01,000.00,028.3,027.2,000.0,036.6,030.1,19.7,0000.0,0000.89,0000.61,0000.47
2023-10-03 01:27:00,SystemResetWarning,0824.4,5.01,000.00,028.3,027.3,000.0,036.6,030.2,19.6,0000.0,0000.96,0000.64,0000.48
2023-10-03 01:28:00,SystemResetWarning,0824.5,5.00,000.00,028.3,027.1,000.0,036.6,030.2,19.7,0000.0,0001.01,0000.66,0000.49
2023-10-03 01:29:00,SystemResetWarning,0824.7,4.98,000.00,028.3,025.3,000.0,036.6,030.0,19.6,0000.0,0000.97,0000.65,0000.49
2023-10-03 01:30:00,SystemResetWarning,0824.7,5.01,000.00,028.2,024.6,000.0,036.5,029.9,21.2,0000.0,0000.98,0000.66,0000.50
2023-10-03 01:31:00,SystemResetWarning,0824.7,5.01,000.00,028.2,024.7,000.0,036.6,029.8,22.8,0000.0,0001.02,0000.69,0000.52
2023-10-03 01:32:00,SystemResetWarning,0824.7,4.99,000.00,028.1,025.0,000.0,036.6,029.7,23.5,0000.0,0001.52,0000.74,0000.56
2023-10-03 01:33:00,SystemResetWarning,0824.8,5.00,000.00,028.1,025.3,000.0,036.5,029.7,23.5,0000.0,0002.35,0000.81,0000.59
2023-10-03 01:34:00,SystemResetWarning,0824.8,5.00,000.00,028.0,025.7,000.0,036.5,029.7,23.7,0000.0,0002.36,0000.82,0000.62
2023-10-03 01:35:00,SystemResetWarning,0824.8,5.01,000.00,028.1,026.0,000.0,036.5,029.8,23.5,0000.0,0002.50,0000.87,0000.65
2023-10-03 01:36:00,SystemResetWarning,0824.8,5.01,000.00,028.1,026.2,000.0,036.5,029.8,23.5,0000.0,0003.37,0000.93,0000.68
2023-10-03 01:37:00,SystemResetWarning,0824.8,4.99,000.00,028.1,026.5,000.0,036.6,029.9,23.7,0000.0,0003.45,0000.97,0000.71
2023-10-03 01:38:00,SystemResetWarning,0824.7,4.99,000.00,028.1,026.7,000.0,036.6,029.9,23.0,0000.0,0004.23,0001.00,0000.74
2023-10-03 01:39:00,SystemResetWarning,0824.8,5.00,000.00,028.2,026.9,000.0,036.6,030.0,23.0,0000.0,0004.70,0001.05,0000.76
2023-10-03 01:40:00,SystemResetWarning,0824.8,5.00,000.00,028.2,027.0,000.0,036.6,030.0,23.3,0000.0,0004.83,0001.13,0000.79
2023-10-03 01:41:00,SystemResetWarning,0824.9,5.00,000.00,028.2,027.1,000.0,036.6,030.1,23.1,0000.0,0004.96,0001.20,0000.82
2023-10-03 01:42:00,SystemResetWarning,0824.9,5.00,000.00,028.3,027.3,000.0,036.6,030.1,23.0,0000.0,0005.05,0001.23,0000.86
2023-10-03 01:43:00,SystemResetWarning,0824.9,5.00,000.00,028.3,027.3,000.0,036.6,030.2,22.7,0000.0,0004.96,0001.25,0000.87
2023-10-03 01:44:00,SystemResetWarning,0824.9,4.98,000.00,028.3,026.3,000.0,036.6,030.1,22.7,0000.0,0004.05,0001.26,0000.88
2023-10-03 01:45:00,SystemResetWarning,0825.0,5.00,000.00,028.3,024.8,000.0,036.6,029.9,23.0,0000.0,0004.14,0001.30,0000.89
2023-10-03 01:46:00,SystemResetWarning,0825.0,5.02,000.00,028.2,024.6,000.0,036.5,029.8,23.0,0000.0,0004.20,0001.34,0000.91
2023-10-03 01:47:00,SystemResetWarning,0825.0,4.99,000.00,028.1,024.9,000.0,036.6,029.7,23.1,0000.0,0004.80,0001.39,0000.93
2023-10-03 01:48:00,SystemResetWarning,0825.1,4.99,000.00,028.1,025.2,000.0,036.6,029.7,23.1,0000.0,0005.66,0001.43,0000.95
2023-10-03 01:49:00,SystemResetWarning,0825.1,5.00,000.00,028.1,025.6,000.0,036.6,029.7,22.9,0000.0,0005.41,0001.44,0000.96
2023-10-03 01:50:00,SystemResetWarning,0825.1,5.00,000.00,028.1,025.9,000.0,036.6,029.8,22.8,0000.0,0004.56,0001.43,0000.98
2023-10-03 01:51:00,SystemResetWarning,0825.1,5.01,000.00,028.1,026.2,000.0,036.6,029.8,22.6,0000.0,0004.55,0001.42,0001.00
2023-10-03 01:52:00,SystemResetWarning,0825.1,5.00,000.00,028.1,026.5,000.0,036.6,029.9,22.6,0000.0,0004.52,0001.42,0001.01
2023-10-03 01:53:00,SystemResetWarning,0825.2,4.99,000.00,028.1,026.7,000.0,036.6,029.9,22.5,0000.0,0004.46,0001.43,0001.02
2023-10-03 01:54:00,SystemResetWarning,0825.2,4.99,000.00,028.2,026.9,000.0,036.6,030.0,22.5,0000.0,0004.50,0001.45,0001.02
2023-10-03 01:55:00,SystemResetWarning,0825.2,5.00,000.00,028.2,027.1,000.0,036.6,030.0,22.5,0000.0,0004.46,0001.43,0001.03
2023-10-03 01:56:00,SystemResetWarning,0825.3,4.99,000.00,028.2,027.2,000.0,036.6,030.1,22.6,0000.0,0004.47,0001.43,0001.04
2023-10-03 01:57:00,SystemResetWarning,0825.4,5.00,000.00,028.3,027.3,000.0,036.6,030.1,23.1,0000.0,0004.52,0001.41,0001.04
2023-10-03 01:58:00,SystemResetWarning,0825.4,5.00,000.00,028.3,027.3,000.0,036.7,030.2,22.7,0000.0,0003.42,0001.39,0001.04
2023-10-03 01:59:00,SystemResetWarning,0825.4,5.00,000.00,028.3,026.1,000.0,036.6,030.1,22.2,0000.0,0002.34,0001.39,0001.04
